Find Gao Fen 12-05

NORAD ID: 61571 Int'l Des: 2024-186 Owner: ZLZB Country: CN operational
LEOCIRCULARRETROGRADESSO

Live-Position

3D-Globus wird geladen...

Über Gao Fen 12-05

Beschreibung wird geladen...

Nächste Überflüge

Passes for default location (London). Set your location on the main map for personalized predictions.

Höhenverlauf

Loading altitude history...

Zweizeiliger Elementsatz

1 61571U 24186A 26120.30073135 .00000403 00000-0 58828-4 0 9996
2 61571 97.9111 129.0797 0002358 86.2091 273.9391 14.80918553 82254
Epoch: 30. Apr. 2026 • Age: 8 hours

Aktueller Status

Höhe 630.4 km
Geschwindigkeit 7.55 km/s
Subsatellitenpunkt 36.91°N, 32.48°E
Startdatum 15. Okt. 2024
Alter 1.5 years
Typ other

Technische Details

Klassifizierung Payload
Masse 3000.00 kg
Trockenmasse 3000.00 kg
Gesamtmasse 3000.00 kg
Länge 2.00 m
Durchmesser 2.00 m
Spannweite 8.00 m
Form Box + 3 Pan
Hersteller SAST
Bus-Typ CS-L3000B
Phasenstatus In Orbit
Besitzer/Staat ZLZB/CN

Most Searched